Regional Weather Roundup
Issued by NWS Wakefield, VA

Home | Current Version | Previous Version | Graphics & Text | Print | Product List | Glossary On
Versions: 1 2 3 4 5 6 7 8 9 10 11 12 13 14 15 16 17 18 19 20 21 22 23 24 25 26 27 28 29 30 31 32 33 34 35 36 37 38 39 40 41 42 43 44 45 46 47 48 49 50
270
ASUS41 KAKQ 071015
RWRAKQ

REGIONAL WEATHER ROUNDUP
NATIONAL WEATHER SERVICE WAKEFIELD VA
500 AM EST WED DEC 07 2016

Note: "fair" indicates few or no clouds below 12,000 feet with no
significant weather and/or obstructions to visibility. * = Denotes
station may not report precipitation (e.g., rain,snow,etc.),
thunder or fog.

VAZ042-051-052>054-056-071100-
NORTHERN VIRGINIA

CITY           SKY/WX    TMP DP  RH WIND       PRES   REMARKS
WASH NATIONAL  CLOUDY    43  41  93 N6        29.94R
DULLES         CLOUDY    40  37  89 NW3       29.94R
FORT BELVOIR   CLOUDY    42  38  85 NW6       29.94R
QUANTICO       CLOUDY    43  39  86 N6        29.95R
FREDERICKSBRG* MOCLDY    42  42 100 CALM      29.94R
STAFFORD*      CLOUDY    39  39 100 N3        29.97S
WARRENTON      CLOUDY    41  36  82 CALM      29.92R
CULPEPER*      CLOUDY    37  37  99 CALM      29.94S FOG
MANASSAS*        N/A    N/A N/A N/A MISG        N/A
LEESBURG*      CLOUDY    41  41 100 MISG      29.95R
WINCHESTER     MOCLDY    34  32  93 NW5       29.93R FOG
FRONT ROYAL*   CLOUDY    36  36 100 S6        29.92R
LURAY*         CLOUDY    36  36 100 CALM      29.95R FOG
$$

VAZ048-049-060>072-079>083-071100-
CENTRAL AND SOUTH CENTRAL VIRGINIA

CITY           SKY/WX    TMP DP  RH WIND       PRES   REMARKS
RICHMOND       CLOUDY    43  41  93 N9        29.93R
CHESTERFIELD*  CLOUDY    43  28  56 N6        29.95R
PETERSBURG*    CLOUDY    42  40  93 NW6       29.95R
HANOVER        CLOUDY    43  40  89 CALM      29.94S
TAPPAHANNOCK*  CLOUDY    44  44 100 NE5       29.94R
QUINTON*       CLOUDY    43  42  97 NW6       29.92R
CHARLOTTSVILLE PTCLDY    37  35  92 CALM      29.92R
GORDONSVILLE*  FAIR      36  36 100 CALM      29.93R FOG
ORANGE*        FOG       37  37 100 CALM      29.95R VSB 3/4
LOUISA*        FOG       41  39  93 CALM      29.92R VSB 1
BUMPASS*       FAIR      41  40  97 CALM      29.94R
FARMVILLE*       N/A     33  33 100 CALM      29.93R FOG
CREWE*         CLOUDY    41  41 100 CALM      29.94R
FORT PICKETT*  CLOUDY   N/A N/A N/A N6        29.94R
CHASE CITY*    FAIR      34  33  94 CALM      29.95R
CLARKSVILLE*   FAIR      36  36 100 CALM      29.95R
SOUTH HILL*    CLOUDY    42  41  97 NW5       30.00R
LAWRENCEVILLE* CLOUDY    42  41  96 N7        29.94S
EMPORIA*       CLOUDY    41  41 100 CALM      29.95R
$$

VAZ088>098-071100-
SOUTHEAST VIRGINIA

CITY           SKY/WX    TMP DP  RH WIND       PRES   REMARKS
NORFOLK        CLOUDY    47  45  93 NW8       29.89R
VIRGINIA BEACH CLOUDY    47  45  93 NW13      29.88R
NORFOLK NAVAL  CLOUDY    47  44  90 NW15      29.91R
WEST POINT*    CLOUDY    45  44  96 NW7       29.93R
SALUDA*        CLOUDY    45  45  97 NW7       29.91R
NEWPORT NEWS   CLOUDY    46  44  93 NW8G18    29.91R
LANGLEY AFB    CLOUDY    46  45  95 NW8       29.90R
FORT EUSTIS    CLOUDY    46  43  89 NW10      29.89R
WILLIAMSBURG*  CLOUDY    46  46 100 NW7       29.92R
HR EXEC AP*    CLOUDY    46  43  87 NW5       29.89R
FRANKLIN*      CLOUDY    43  42  94 NW10      29.94R
US460-WAKEFLD  CLOUDY    44  43  96 NW5       29.93R FOG
$$

VAZ020-022-025-037-045-071100-
WEST CENTRAL AND SOUTHWEST VIRGINIA

CITY           SKY/WX    TMP DP  RH WIND       PRES   REMARKS
STAUNTON*      FOG       32  32 100 CALM      29.96R VSB 1/4
WAYNESBORO*    FAIR      35  34  96 NW5       29.93R
HOT SPRINGS VA CLOUDY    34  34 100 W18G25    29.88R WCI  23
LYNCHBURG      CLOUDY    30  29  96 CALM      29.95R
DANVILLE       MOCLDY    33  33 100 SW5       29.96R FOG
SOUTH BOSTON*  FAIR      32  32  97 CALM      29.96R
MARTINSVILLE   FOG       30  30  99 CALM      29.99R VSB 1/4
ROANOKE        CLEAR     45  34  65 VRB5      29.97R
BLACKSBURG     MOCLDY    41  35  79 NW7       29.99R
DUBLIN*        CLOUDY    43  37  77 W8        29.99R
MARION*        CLOUDY    40  33  76 W8G18     30.02R
HILLSVILLE*    CLOUDY    40  35  84 NW12      29.95R
RICHLANDS*     CLOUDY    37  36  93 N6        30.03R
WISE*          CLOUDY    36  36 100 NW3       30.03F
ABINGDON*      MOCLDY    42  35  75 NW3       30.03S
$$

MDZ021>025-VAZ099-100-071100-
SOUTHERN MARYLAND AND THE DELMARVA PENINSULA

CITY           SKY/WX    TMP DP  RH WIND       PRES   REMARKS
PATUXENT RIVER CLOUDY    45  43  93 NW14      29.91R
BAY BRIDGE APT CLOUDY    45  41  87 NW8       29.92R
LEONARDTOWN    CLOUDY    43  41  93 NW3       29.93R
DOVER          LGT RAIN  43  43 100 NW12      29.89R
GEORGETOWN     LGT RAIN  45  44  97 N7        29.88R
EASTON         CLOUDY    45  42  89 N7        29.95R
CAMBRIDGE      CLOUDY    43  41  93 N9        29.90R
SALISBURY      LGT RAIN  45  44  97 NW14      29.88R FOG
OCEAN CITY     LGT RAIN  46  46 100 N12       29.85R FOG
WALLOPS ISLAND CLOUDY    45  45 100 NW12      29.86R
ACCOMACK*      RAIN      46  45  96 NW12G22   29.87R
$$

NCZ012>017-030>032-071100-
NORTH CENTRAL AND EASTERN NORTH CAROLINA

CITY           SKY/WX    TMP DP  RH WIND       PRES   REMARKS
ROANOKE RAPIDS CLOUDY    43  43 100 NW7       29.95R
RALEIGH        PTCLDY    40  38  93 CALM      29.96R
ELIZABETH CITY CLOUDY    46  45  96 NW13      29.90R
AHOSKIE*       CLOUDY    43  42  97 NW3       29.94R
EDENTON*       CLOUDY    46  44  90 NW9G16    29.92R
CURRITUCK*     CLOUDY    47  47 100 W9        29.89R
KILL DEVIL HLS CLOUDY    47  47 100 NW8G18    29.85R
MANTEO         CLOUDY    47  46  97 NW13G22   29.87R
CAPE HATTERAS  CLOUDY    48  46  93 NW13G22   29.86R
TARBORO*       NOT AVBL
GOLDSBORO      CLOUDY    45  45  99 NW8       29.94R
WASHINGTON     CLOUDY    44  42  93 NW8G20    29.93R
GREENVILLE     CLOUDY    45  45 100 NW8       29.96R
NEW BERN       CLOUDY    45  42  89 NW12      29.94R
WILMINGTON     CLOUDY    45  44  97 NW13      29.95R
$$

VAZ048-071100-
ELSEWHERE

CITY           SKY/WX    TMP DP  RH WIND       PRES   REMARKS
HARRISBURG PA  CLOUDY    39  39 100 CALM      29.93R FOG
BALTIMORE      CLOUDY    41  41 100 NW3       29.92R
ANNAPOLIS      CLOUDY    45  42  89 NW7       29.92R
ANDREWS AFB    CLOUDY    41  39  93 NW8       29.92R
PHILADELPHIA   CLOUDY    41  39  93 N8        29.91R FOG
HENDERSON NC     N/A     34  34  99 CALM      29.95R FOG
GREENSBORO     PTCLDY    39  38  96 W7        29.95R
ROCKY MOUNT    CLOUDY    44  43  96 NW7       29.95R
$$

VAZ100-071100-
MARINE

STATION/POSITION TIME  TEMP    WIND        PRES    WAVE   SWELL
                       AIR SEA DIR/SP/G            HT/PER HT/PER
                 (UTC) (F)     (DEG/KT/KT) (MB)    (FT/S) (FT/S)
BRANDYWINE LGT   0948   44     350/ 20/ 22   N/A
CAPE MAY NJ      0948   45 49   20/  1/  6 1010.8R
LEWES DE         0948   45 48  340/ 20/ 25 1011.1R
OCEAN-CITY-INLET 0948   47 50  350/ 14/ 18 1010.7R
WACHAPREAGUE VA  0942   45 49  320/  7/ 16 1010.8R
THOMAS POINT MD  1000   44 49  320/ 11/ 13   N/A
GOOSES REEF MD   0950   45      10/ 16/ 17 1013.5R
COVE POINT MD    0942   44     350/ 19/ 22 1013.2R
SOLOMONS ISLAND  0942   45 50  330/ 10/ 13   N/A
BISHOPS HEAD MD  0942   45 46  330/ 10/ 14 1012.5R
PINEY POINT MD   0942          350/ 13/ 15   N/A
POTOMAC MD       0950   46     340/ 14/ 16 1011.9R
CAMBRIDGE MD     0942   45 47  320/ 12/ 16 1011.8R
LEWISETTA VA     0942   46 48  350/ 10/ 14 1012.6R
RAPPAHANNOCK LGT 0942          330/ 23/ 25 1012.0R
STINGRAY PT      0950   47     330/ 14/ 17 1012.6R
YORK RVR RNG VA  0942   47     340/ 16/ 19 1011.9R
YORKTOWN VA      0942   46 51  320/ 17/ 21 1012.3R
JAMESTOWN VA     0950   45     320/ 12/ 16   N/A
DOMINION TERM VA 0942   47     340/ 12/ 15 1012.6R
KIPTOPEKE VA     0942      52  340/ 21/ 23   N/A
CHES BAY BRIDGE  0942   48 53  320/ 18/ 20 1011.5R
CAPE HENRY VA    0942   48     310/ 20/ 22   N/A
WILLOUBY STN VA  0942   47     320/ 15/ 19 1013.2R
S CRANEY ISL VA  0942   47     330/ 11/ 13 1011.8R
CAPE HENRY BUOY  0942      55                N/A     7/ 8   2/11
CAPE CHARLES BUO 0956      55                N/A     6/11   2/11
OFFSHORE WE BUOY 0951      56                N/A     9/ 8   3/11
64NM E OF VA BCH 0950   54 59  330/ 25/ 33 1007.5R  10/ 7   3/11
DUCK PIER NC     0942   48 54  310/ 19/ 22 1010.4R
44100 DUCK FRF   0905      56                N/A     6/11   3/11
OREGON INLET NC  0942   48 56  300/ 17/ 25 1010.6R
HATTERAS NC      0942   49 61  310/ 22/ 27 1010.8R
DIAMOND SHLS NC  0950   55 74  320/ 23/ 27 1010.4R   7/10   3/10
CAPE LOOKOUT NC  0900   48     310/ 17/ 20 1011.3R
$$




USA.gov is the U.S. government's official web portal to all federal, state and local government web resources and services.